AirNav   Pilot Hours Calculator
 
 777 users online  

90KY Mother Nature Spring Water Heliport
Ashcamp, Kentucky, USA

GOING TO ASHCAMP?


FAA INFORMATION EFFECTIVE 09 SEPTEMBER 2021

Location

FAA Identifier: 90KY
Lat/Long: 37-15-31.0000N 082-27-41.0000W
37-15.516667N 082-27.683333W
37.2586111,-82.4613889
(estimated)
Elevation: 1000 ft. / 305 m (estimated)
From city: 22 miles NW of ASHCAMP, KY
Time zone: UTC -4 (UTC -5 during Standard Time)
Zip code: 41512

Heliport Operations

Heliport use: Private use. Permission required prior to landing
Activation date: 09/2011
Control tower: no
ARTCC: INDIANAPOLIS CENTER
FSS: LOUISVILLE FLIGHT SERVICE STATION
Attendance: UNATNDD
Wind indicator: yes
Segmented circle: no

Heliport Communications

WX AWOS-3 at LNP (17 nm S): 118.6 (276-328-3727)
WX AWOS-3PT at PBX (19 nm N): 121.225 (606-437-6701)

Nearby radio navigation aids

VOR radial/distance  VOR name  Freq  Var
GZGr327/31.8GLADE SPRING VOR/DME110.2002W

Heliport Services

Runway Information

Helipad H1

Dimensions: 45 x 48 ft. / 14 x 15 m
Surface: concrete
Traffic pattern: leftleft

Heliport Ownership and Management from official FAA records

Ownership: Privately-owned
Owner: ESTIL BENTLEY JR.
8862 ELKHORN CREEK ROAD
ASHCAMP, KY 41512
Phone 606-754-5756
Manager: ESTIL BENTLEY JR.
8862 ELKHORN CREEK ROAD
ASHCAMP, KY 41512
Phone 606-754-5756

Heliport Operational Statistics

Aircraft based on the field: 1
Helicopters: 1
    

Additional Remarks

FOR CD CTC INDIANAPOLIS ARTCC AT 317-247-2411.

Instrument Procedures

There are no published instrument procedures at 90KY.

Some nearby airports with instrument procedures:

KLNP - Lonesome Pine Airport (17 nm S)
KPBX - Pike County Airport-Hatcher Field (19 nm N)
KEBD - Appalachian Regional Airport (30 nm NE)
KSJS - Big Sandy Regional Airport (31 nm N)
KJFZ - Tazewell County Airport (34 nm E)
 
Loc | Ops | Rwys | IFR | FBO | Links
Com | Nav | Svcs | Stats | Notes
Aerial photo
No photo
 
Airport distance calculator
Flying to Mother Nature Spring Water Heliport? Find the distance to fly.

From to 90KY

Sunrise and sunset
Times for 24-Sep-2021
 Local
(UTC-4)
 Zulu
(UTC)
Morning civil twilight06:5410:54
Sunrise07:2011:20
Sunset19:2323:23
Evening civil twilight19:4923:49

Current date and time
Zulu (UTC)  24-Sep-2021 04:20:27
Local (UTC-4)  24-Sep-2021 00:20:27
 
METAR
KLNP 
18nm S 
240355Z AUTO 19003KT 10SM OVC045 08/06 A3014 RMK AO2
KPBX 
19nm N 
240355Z AUTO 00000KT 10SM BKN050 12/09 A3010 RMK AO2 T01150090
KSJS 
31nm N 
AWOS-3 120.175 606-298-4143
240355Z AUTO 23003KT 10SM CLR 12/09 A3010 RMK AO2 T01160092
KJFZ 
34nm E 
240355Z AUTO 26004KT 10SM CLR 09/06 A3013 RMK AO2 T00880058
TAF
KSJS 
31nm N 
231738Z 2318/2418 26010KT P6SM FEW050 FEW070 FM240000 VRB03KT P6SM FEW250 FM241000 VRB03KT 4SM BR SKC FM241100 VRB03KT 2SM BR SKC FM241300 VRB03KT P6SM SKC
NOTAMs
Click for the latest NOTAMs
NOTAMs are issued by the DoD/FAA and will open in a separate window not controlled by AirNav.

 

 
 

Would you like to see your business listed on this page?

 If your business provides an interesting product or service to pilots, flight crews, aircraft, or users of the Mother Nature Spring Water Heliport, you should consider listing it here.  To start the listing process, click on the button below
 
Add a business
 

Other Pages about Mother Nature Spring Water Heliport

Update a link
 
Copyright © AirNav, LLC. All rights reserved. Privacy Policy  Contact